Regional Weather Roundup
Issued by NWS

Home | Current Version | Previous Version | Text Only | Print | Product List | Glossary Off
Versions: 1 2 3 4 5 6 7 8 9 10 11 12 13 14 15 16 17 18 19 20 21 22 23 24 25 26 27

000
ASUS43 KDMX 231707
RWRIA

WEATHER ROUNDUP FOR IOWA
NATIONAL WEATHER SERVICE DES MOINES IA
1200 PM CDT THU OCT 23 2014

NOTE: "FAIR" INDICATES FEW OR NO CLOUDS BELOW 12,000 FEET WITH NO
SIGNIFICANT WEATHER AND/OR OBSTRUCTIONS TO VISIBILITY.

* - THESE STATIONS ARE NOT NWS STATIONS...THUS NOT UNDER NWS
QUALITY CONTROL.  THEY ALSO DO NOT REPORT WEATHER SUCH
AS PRECIPITATION OR FOG.

IAZ001>003-012>014-020>022-031>034-043>046-231800-
   NORTHWEST IOWA

CITY           SKY/WX    TMP DP  RH WIND       PRES   REMARKS
CARROLL *      SUNNY     64  54  68 NW8       30.06S
CHEROKEE *     PTSUNNY   57  57 100 S6        30.06F
DENISON *      SUNNY     63  55  77 NW6       30.06S
LE MARS *      SUNNY     59  57  94 CALM      30.06F
ORANGE CITY *  SUNNY     64  54  68 W7        30.05F
SHELDON *      SUNNY     61  54  77 VRB5      30.04S
SIOUX CITY     SUNNY     63  53  70 CALM      30.06F
SPENCER        MOSUNNY   58  55  90 SW6       30.05F
STORM LAKE *   PTSUNNY   57  54  88 W9        30.08S
$$

IAZ055>058-069>071-079>083-090>094-231800-
   SOUTHWEST IOWA

CITY           SKY/WX    TMP DP  RH WIND       PRES   REMARKS
ATLANTIC *     CLOUDY    64  57  77 W9        30.07R
AUDUBON *      MOSUNNY   64  55  72 NW7       30.08R
CLARINDA *     MOSUNNY   64  59  82 W5        30.09S
COUNCIL BLFS * SUNNY     64  59  82 VRB5      30.07S
CRESTON *      CLOUDY    61  61 100 W7        30.07S
HARLAN  *      MOSUNNY   63  57  82 W8        30.11R HAZE
LAMONI         LGT RAIN  59  56  89 S9        30.08S
RED OAK *      PTSUNNY   66  57  72 W8        30.07S
SHENANDOAH *   PTSUNNY   66  59  77 W9        30.08S
$$

IAZ047>049-059>061-072>074-084-231800-
   CENTRAL IOWA

CITY           SKY/WX    TMP DP  RH WIND       PRES   REMARKS
AMES           CLOUDY    60  56  86 W12       30.04F
ANKENY *       PTSUNNY   63  59  88 W6        30.04F
CHARITON *     CLOUDY    59  54  82 S13       30.07S
DES MOINES     CLOUDY    63  59  87 W6        30.05S
GRINNELL*      CLOUDY    55  50  82 S9        30.06F
KNOXVILLE *    CLOUDY    61  54  77 S10       30.06S
MARSHALLTOWN   CLOUDY    55  53  93 S6        30.04F
PELLA *        CLOUDY    61  54  77 SW6       30.08S
PERRY *        CLOUDY    64  57  77 W7        30.05S
$$

IAZ004>006-015-016-023>025-035-036-231800-
   NORTH CENTRAL IOWA

CITY           SKY/WX    TMP DP  RH WIND       PRES   REMARKS
ALGONA *       CLOUDY    55  54  94 W6        30.05S
CLARION *      CLOUDY    59  57  94 NW8       30.04S
ESTHERVILLE    SUNNY     58  53  84 SW7       30.04S
FORT DODGE *   MOSUNNY   63  54  72 W7        30.06R
MASON CITY     CLOUDY    56  53  90 SW5       30.05S
FOREST CITY *  PTSUNNY   61  57  88 W6        30.04R
IOWA FALLS *   CLOUDY    57  55  94 W6        30.05S FOG
$$

IAZ007>011-017>019-026>030-037>042-050>054-066-231800-
   NORTHEAST IOWA

CITY           SKY/WX    TMP DP  RH WIND       PRES   REMARKS
CEDAR RAPIDS   CLOUDY    51  47  86 S10       30.07S
CHARLES CITY * CLOUDY    50  50 100 S6        30.05S FOG
CLINTON *      CLOUDY    55  43  62 S10       30.13F
DECORAH *      CLOUDY    46  46 100 VRB6      30.05F
DUBUQUE        CLOUDY    47  44  90 S14       30.09F
MONTICELLO *   CLOUDY    50  46  87 SE8       30.08S
OELWEIN *      CLOUDY    48  46  93 S8        30.07S FOG
WATERLOO       CLOUDY    50  48  93 S5        30.05F FOG
$$

IAZ064-065-067-068-078-231800-
   EAST CENTRAL IOWA

CITY           SKY/WX    TMP DP  RH WIND       PRES   REMARKS
DAVENPORT      CLOUDY    56  42  59 S14       30.10F
IOWA CITY      CLOUDY    52  48  86 SE8       30.11R
MT. PLEASANT * CLOUDY    57  45  62 S9        30.11F
MUSCATINE *    CLOUDY    55  46  71 S13       30.12R
QUAD CITIES    CLOUDY    58  44  60 S7        30.11S
$$

IAZ062-063-075>077-085>089-095>099-231800-
   SOUTHEAST IOWA

CITY           SKY/WX    TMP DP  RH WIND       PRES   REMARKS
BURLINGTON     CLOUDY    56  45  66 S15G23    30.12S
FAIRFIELD *    SUNNY     63  48  59 SW10G16   30.09S
FORT MADISON * PTSUNNY   57  46  67 S8        30.13S
KEOKUK *       PTSUNNY   54  45  71 S12       30.12F
OSKALOOSA *    CLOUDY    59  50  72 SW9       30.08F
CENTERVILLE *  MOSUNNY   63  55  77 S7        30.10F
OTTUMWA        CLOUDY    64  52  64 S9        30.07F
WASHINGTON *   CLOUDY    57  50  77 S13       30.09F
$$

ABBREVIATIONS USED IN REMARKS
   TC - TEMPERATURES IN CELSIUS
  WCI - WIND CHILL INDEX
   HX - HEAT INDEX
  VSB - VISIBILITY
$$




USA.gov is the U.S. government's official web portal to all federal, state and local government web resources and services.